MAS319 ZBAD-WMKK

Flight info

Callsign MAS319
Flight time 5h 28m
Altitude 36100
Route OMDEK6K OMDEK W37 KILUD/K0872S1160 W37 GUSIV/K0893S1130 W37 PEXID/K0885S1160 W37 OMBEB/K0885S1130 R473 IDAXI/K0876S1190 R473 NNX/K0887S1160 R473 WYN W18 NLG/K0874S1190 W18 TAMOT/N0478F380 DCT ALLEY V32 EPDOS L642 EPKAL/K0880F390 L642 EXOTO/K0874F400 L642 ESPOB/N0474F400 L642 ENREP M763 TAXUL Y349 PULIP PULIP1J
Aircraft A339/H-SADE1E2E3GHIJ3J5M1P2RWXY/LB2D1

Departure

Time 2026-04-22 05:47
Airport Beijing Daxing International Airport (ZBAD)

Arrival

Time 2026-04-22 11:16
Airport Kuala Lumpur International Airport (WMKK)
Time Latitude Longitude Altitude Speed Heading
2026-04-22 05:20 39.50400 116.41119 99 ft 0 kts
2026-04-22 05:33 39.50394 116.41119 99 ft 2 kts
2026-04-22 05:33 39.50380 116.41119 99 ft 2 kts 352°
2026-04-22 05:33 39.50365 116.41122 99 ft 2 kts 341°
2026-04-22 05:34 39.50351 116.41130 99 ft 2 kts 330°
2026-04-22 05:34 39.50338 116.41141 99 ft 2 kts 319°
2026-04-22 05:34 39.50327 116.41155 99 ft 2 kts 308°
2026-04-22 05:34 39.50319 116.41170 99 ft 2 kts 297°
2026-04-22 05:35 39.50313 116.41188 99 ft 2 kts 287°
2026-04-22 05:35 39.50309 116.41206 99 ft 2 kts 276°
2026-04-22 05:35 39.50309 116.41226 99 ft 2 kts 265°
2026-04-22 05:35 39.50311 116.41245 99 ft 2 kts 261°
2026-04-22 05:36 39.50312 116.41258 99 ft 0 kts 262°
2026-04-22 05:38 39.50312 116.41254 99 ft 1 kts 262°
2026-04-22 05:38 39.50310 116.41232 99 ft 3 kts 262°
2026-04-22 05:39 39.50305 116.41180 99 ft 8 kts 263°
2026-04-22 05:39 39.50296 116.41087 99 ft 12 kts 263°
2026-04-22 05:39 39.50286 116.40984 99 ft 11 kts 263°
2026-04-22 05:39 39.50238 116.40919 99 ft 11 kts 189°
2026-04-22 05:40 39.50154 116.40928 99 ft 12 kts 172°
2026-04-22 05:40 39.50086 116.40881 99 ft 12 kts 247°
2026-04-22 05:40 39.50073 116.40765 99 ft 13 kts 263°
2026-04-22 05:40 39.50061 116.40643 99 ft 14 kts 263°
2026-04-22 05:41 39.50050 116.40514 99 ft 14 kts 263°
2026-04-22 05:41 39.50036 116.40381 99 ft 15 kts 262°
2026-04-22 05:41 39.50018 116.40265 99 ft 11 kts 234°
2026-04-22 05:41 39.49943 116.40241 99 ft 12 kts 171°
2026-04-22 05:42 39.49856 116.40255 99 ft 13 kts 172°
2026-04-22 05:42 39.49763 116.40269 99 ft 13 kts 173°
2026-04-22 05:42 39.49665 116.40286 99 ft 14 kts 173°
2026-04-22 05:42 39.49562 116.40301 99 ft 14 kts 172°
2026-04-22 05:43 39.49459 116.40319 99 ft 15 kts 172°
2026-04-22 05:43 39.49350 116.40334 99 ft 15 kts 173°
2026-04-22 05:43 39.49240 116.40353 99 ft 16 kts 172°
2026-04-22 05:43 39.49128 116.40370 99 ft 16 kts 173°
2026-04-22 05:44 39.49014 116.40388 99 ft 16 kts 173°
2026-04-22 05:44 39.48899 116.40408 99 ft 16 kts 172°
2026-04-22 05:44 39.48783 116.40424 99 ft 16 kts 173°
2026-04-22 05:44 39.48667 116.40443 99 ft 16 kts 172°
2026-04-22 05:45 39.48548 116.40462 99 ft 17 kts 172°
2026-04-22 05:45 39.48449 116.40450 99 ft 13 kts 220°
2026-04-22 05:45 39.48421 116.40333 99 ft 12 kts 263°
2026-04-22 05:45 39.48414 116.40255 99 ft 9 kts 263°
2026-04-22 05:46 39.48419 116.40170 99 ft 9 kts 301°
2026-04-22 05:46 39.48504 116.40129 99 ft 17 kts 354°
2026-04-22 05:46 39.48756 116.40091 99 ft 64 kts 352°
2026-04-22 05:46 39.49411 116.39987 99 ft 122 kts 353°
2026-04-22 05:47 39.50412 116.39831 100 ft 168 kts 353°
2026-04-22 05:47 39.51642 116.39642 462 ft 179 kts 354°
2026-04-22 05:47 39.52888 116.39444 1019 ft 181 kts 354°
2026-04-22 05:47 39.54133 116.39244 1603 ft 183 kts 355°
2026-04-22 05:48 39.55404 116.39041 2075 ft 192 kts 354°
2026-04-22 05:48 39.56801 116.38824 2423 ft 208 kts 355°
2026-04-22 05:48 39.58290 116.38595 2749 ft 226 kts 354°
2026-04-22 05:48 39.59921 116.38342 3093 ft 244 kts 354°
2026-04-22 05:49 39.61652 116.38073 3453 ft 261 kts 354°
2026-04-22 05:49 39.63494 116.37785 3967 ft 272 kts 354°
2026-04-22 05:49 39.65366 116.37393 4708 ft 274 kts 342°
2026-04-22 05:49 39.66954 116.36101 5460 ft 276 kts 313°
2026-04-22 05:50 39.67902 116.33945 6208 ft 279 kts 285°
2026-04-22 05:50 39.68016 116.31477 6909 ft 281 kts 266°
2026-04-22 05:50 39.67743 116.28951 7577 ft 285 kts 252°
2026-04-22 05:50 39.66661 116.26816 8242 ft 289 kts 219°
2026-04-22 05:51 39.64858 116.25741 8915 ft 293 kts 188°
2026-04-22 05:51 39.62836 116.25541 9544 ft 297 kts 185°
2026-04-22 05:51 39.60744 116.25326 10149 ft 302 kts 187°
2026-04-22 05:51 39.58625 116.25043 10551 ft 314 kts 188°
2026-04-22 05:52 39.56398 116.24701 10847 ft 330 kts 188°
2026-04-22 05:52 39.54075 116.24316 11140 ft 346 kts 189°
2026-04-22 05:52 39.51642 116.23900 11437 ft 362 kts 189°
2026-04-22 05:52 39.49091 116.23457 11707 ft 378 kts 189°
2026-04-22 05:53 39.46435 116.22992 12029 ft 391 kts 189°
2026-04-22 05:53 39.43699 116.22513 12620 ft 396 kts 189°
2026-04-22 05:53 39.40973 116.22038 13292 ft 399 kts 189°
2026-04-22 05:53 39.38221 116.21560 13916 ft 402 kts 190°
2026-04-22 05:54 39.35428 116.21076 14575 ft 405 kts 190°
2026-04-22 05:54 39.32659 116.20594 15204 ft 408 kts 191°
2026-04-22 05:54 39.29834 116.20104 15860 ft 410 kts 191°
2026-04-22 05:54 39.26982 116.19608 16494 ft 413 kts 191°
2026-04-22 05:55 39.24154 116.19114 17086 ft 417 kts 191°
2026-04-22 05:55 39.21261 116.18610 17721 ft 419 kts 192°
2026-04-22 05:55 39.18352 116.18106 18322 ft 422 kts 192°
2026-04-22 05:55 39.15469 116.17605 18936 ft 425 kts 192°
2026-04-22 05:56 39.12529 116.17095 19554 ft 427 kts 192°
2026-04-22 05:56 39.09566 116.16582 20146 ft 429 kts 193°
2026-04-22 05:56 39.06629 116.16074 20686 ft 432 kts 193°
2026-04-22 05:56 39.03643 116.15559 21245 ft 434 kts 193°
2026-04-22 05:57 39.00634 116.15040 21785 ft 436 kts 193°
2026-04-22 05:57 38.97652 116.14526 22320 ft 437 kts 193°
2026-04-22 05:57 38.94610 116.14006 22822 ft 439 kts 193°
2026-04-22 05:57 38.91569 116.13483 23285 ft 442 kts 193°
2026-04-22 05:58 38.88539 116.12962 23769 ft 444 kts 193°
2026-04-22 05:58 38.85467 116.12440 24238 ft 445 kts 194°
2026-04-22 05:58 38.82413 116.11923 24665 ft 447 kts 194°
2026-04-22 05:58 38.79307 116.11397 25114 ft 448 kts 194°
2026-04-22 05:59 38.76254 116.10877 25591 ft 448 kts 195°
2026-04-22 05:59 38.73162 116.10355 26098 ft 447 kts 195°
2026-04-22 05:59 38.70060 116.09817 26513 ft 447 kts 196°
2026-04-22 05:59 38.67049 116.09085 26890 ft 444 kts 200°
2026-04-22 06:00 38.64068 116.08104 27329 ft 440 kts 203°
2026-04-22 06:00 38.61169 116.06897 27704 ft 438 kts 207°
2026-04-22 06:00 38.58336 116.05544 28042 ft 438 kts 207°
2026-04-22 06:00 38.55456 116.04179 28534 ft 436 kts 207°
2026-04-22 06:01 38.52646 116.02856 29164 ft 430 kts 208°
2026-04-22 06:01 38.49871 116.01543 29718 ft 426 kts 208°
2026-04-22 06:01 38.47112 116.00237 30209 ft 424 kts 209°
2026-04-22 06:01 38.44334 115.98926 30635 ft 423 kts 208°
2026-04-22 06:02 38.41600 115.97627 31111 ft 420 kts 208°
2026-04-22 06:02 38.38887 115.96344 31571 ft 418 kts 208°
2026-04-22 06:02 38.36143 115.95045 31959 ft 417 kts 209°
2026-04-22 06:02 38.33436 115.93784 32407 ft 416 kts 207°
2026-04-22 06:03 38.30657 115.92664 32868 ft 417 kts 206°
2026-04-22 06:03 38.27868 115.91718 33331 ft 417 kts 204°
2026-04-22 06:03 38.25057 115.90939 33777 ft 417 kts 201°
2026-04-22 06:03 38.22173 115.90320 34154 ft 419 kts 199°
2026-04-22 06:04 38.19292 115.89852 34415 ft 421 kts 198°
2026-04-22 06:04 38.16399 115.89398 34631 ft 422 kts 198°
2026-04-22 06:04 38.13448 115.88939 34851 ft 423 kts 199°
2026-04-22 06:04 38.10551 115.88481 35023 ft 425 kts 199°
2026-04-22 06:05 38.07604 115.88010 35194 ft 426 kts 199°
2026-04-22 06:05 38.04665 115.87548 35398 ft 427 kts 199°
2026-04-22 06:05 38.01717 115.87087 35598 ft 428 kts 199°
2026-04-22 06:05 37.98770 115.86635 35752 ft 430 kts 199°
2026-04-22 06:06 37.95808 115.86180 35884 ft 432 kts 199°
2026-04-22 06:06 37.92792 115.85712 36051 ft 433 kts 199°
2026-04-22 06:06 37.86809 115.84770 36076 ft 436 kts 199°
2026-04-22 06:07 37.80808 115.83778 36070 ft 435 kts 200°
2026-04-22 06:07 37.74907 115.82373 36061 ft 428 kts 205°
2026-04-22 06:08 37.69254 115.80320 36062 ft 420 kts 210°
2026-04-22 06:08 37.63826 115.77651 36062 ft 414 kts 214°
2026-04-22 06:09 37.58591 115.74687 36061 ft 415 kts 214°
2026-04-22 06:09 37.53339 115.71742 36061 ft 415 kts 214°
2026-04-22 06:10 37.48060 115.68765 36060 ft 415 kts 214°
2026-04-22 06:10 37.42818 115.65793 36063 ft 413 kts 215°
2026-04-22 06:11 37.37655 115.62713 36060 ft 413 kts 216°
2026-04-22 06:11 37.32475 115.59589 36064 ft 413 kts 215°
2026-04-22 06:12 37.27292 115.56493 36063 ft 414 kts 216°
2026-04-22 06:12 37.22066 115.53385 36062 ft 414 kts 216°
2026-04-22 06:13 37.16897 115.50312 36061 ft 414 kts 216°
2026-04-22 06:13 37.11677 115.47218 36063 ft 415 kts 215°
2026-04-22 06:14 37.06473 115.44141 36064 ft 414 kts 215°
2026-04-22 06:14 37.01249 115.41055 36068 ft 414 kts 215°
2026-04-22 06:15 36.96074 115.38010 36058 ft 413 kts 216°
2026-04-22 06:15 36.90835 115.34929 36058 ft 416 kts 214°
2026-04-22 06:16 36.85591 115.31848 36058 ft 416 kts 214°
2026-04-22 06:16 36.80367 115.28798 36064 ft 416 kts 214°
2026-04-22 06:17 36.75089 115.25718 36058 ft 418 kts 214°
2026-04-22 06:17 36.69826 115.22640 36062 ft 419 kts 214°
2026-04-22 06:18 36.64576 115.19557 36058 ft 418 kts 214°
2026-04-22 06:18 36.59340 115.16505 36058 ft 418 kts 214°
2026-04-22 06:19 36.54048 115.13418 36065 ft 420 kts 214°
2026-04-22 06:19 36.48775 115.10355 36058 ft 421 kts 214°
2026-04-22 06:20 36.43438 115.07260 36057 ft 422 kts 214°
2026-04-22 06:20 36.37854 115.04742 36057 ft 433 kts 206°
2026-04-22 06:21 36.31993 115.02882 36058 ft 439 kts 201°
2026-04-22 06:21 36.25951 115.01698 36053 ft 445 kts 197°
2026-04-22 06:22 36.19718 115.01034 36052 ft 449 kts 195°
2026-04-22 06:22 36.13514 115.00389 36054 ft 450 kts 194°
2026-04-22 06:23 36.07259 114.99747 36046 ft 454 kts 194°
2026-04-22 06:23 36.00952 114.99103 36041 ft 453 kts 194°
2026-04-22 06:24 35.91590 114.98152 36052 ft 452 kts 194°
2026-04-22 06:25 35.85310 114.97515 36062 ft 453 kts 194°
2026-04-22 06:25 35.79042 114.96886 36065 ft 452 kts 194°
2026-04-22 06:26 35.72774 114.96249 36065 ft 450 kts 194°
2026-04-22 06:26 35.66537 114.95618 36071 ft 453 kts 194°
2026-04-22 06:27 35.60229 114.94982 36079 ft 454 kts 194°
2026-04-22 06:27 35.53977 114.94355 36076 ft 453 kts 194°
2026-04-22 06:28 35.47687 114.93723 36064 ft 453 kts 194°
2026-04-22 06:28 35.41414 114.93094 36068 ft 453 kts 194°
2026-04-22 06:29 35.35132 114.92467 36071 ft 453 kts 194°
2026-04-22 06:29 35.28836 114.91836 36070 ft 450 kts 194°
2026-04-22 06:30 35.22606 114.91214 36072 ft 453 kts 194°
2026-04-22 06:30 35.19435 114.90900 36262 ft 451 kts 194°
2026-04-22 06:30 35.16317 114.90590 36133 ft 452 kts 194°
2026-04-22 06:31 35.10110 114.89972 36081 ft 449 kts 193°
2026-04-22 06:31 35.03880 114.89356 36068 ft 448 kts 194°
2026-04-22 06:32 34.97679 114.88738 36077 ft 449 kts 194°
2026-04-22 06:32 34.91397 114.88115 36068 ft 453 kts 193°
2026-04-22 06:33 34.85127 114.87496 36075 ft 454 kts 194°
2026-04-22 06:33 34.78854 114.86874 36072 ft 452 kts 193°
2026-04-22 06:34 34.72575 114.86259 36073 ft 452 kts 193°
2026-04-22 06:34 34.66310 114.85642 36067 ft 453 kts 193°
2026-04-22 06:35 34.60046 114.85027 36067 ft 451 kts 193°
2026-04-22 06:35 34.53772 114.84414 36073 ft 452 kts 193°
2026-04-22 06:36 34.47489 114.83800 36078 ft 452 kts 193°
2026-04-22 06:36 34.41226 114.83193 36072 ft 454 kts 193°
2026-04-22 06:37 34.34904 114.82581 36075 ft 456 kts 192°
2026-04-22 06:37 34.28578 114.81978 36072 ft 457 kts 192°
2026-04-22 06:38 34.22237 114.81373 36072 ft 457 kts 193°
2026-04-22 06:38 34.15895 114.80760 36080 ft 457 kts 193°
2026-04-22 06:39 34.09608 114.80132 36078 ft 457 kts 192°
2026-04-22 06:39 34.03263 114.79516 36070 ft 459 kts 192°
2026-04-22 06:40 33.96885 114.78911 36068 ft 458 kts 192°
2026-04-22 06:40 33.90522 114.78319 36082 ft 458 kts 192°
2026-04-22 06:41 33.84214 114.77721 36069 ft 458 kts 192°
2026-04-22 06:41 33.77822 114.77080 36072 ft 460 kts 192°
2026-04-22 06:42 33.71449 114.76442 36066 ft 460 kts 192°
2026-04-22 06:42 33.65109 114.75840 36075 ft 460 kts 192°
2026-04-22 06:43 33.58691 114.75253 36083 ft 461 kts 192°
2026-04-22 06:43 33.52345 114.74606 36069 ft 460 kts 192°
2026-04-22 06:44 33.45942 114.73939 36080 ft 460 kts 192°
2026-04-22 06:44 33.39573 114.73305 36073 ft 460 kts 192°
2026-04-22 06:45 33.33199 114.72695 36077 ft 461 kts 192°
2026-04-22 06:45 33.26797 114.72094 36066 ft 460 kts 192°
2026-04-22 06:46 33.20409 114.71484 36074 ft 460 kts 192°
2026-04-22 06:46 33.14035 114.70837 36081 ft 461 kts 192°
2026-04-22 06:47 33.07610 114.70191 36061 ft 464 kts 191°
2026-04-22 06:47 33.01212 114.69568 36071 ft 462 kts 191°
2026-04-22 06:48 32.94807 114.68954 36079 ft 462 kts 192°
2026-04-22 06:48 32.88420 114.68333 36071 ft 462 kts 192°
2026-04-22 06:49 32.81982 114.67695 36068 ft 462 kts 191°
2026-04-22 06:49 32.75578 114.67077 36076 ft 463 kts 192°
2026-04-22 06:50 32.69183 114.66470 36070 ft 462 kts 191°
2026-04-22 06:50 32.62776 114.65873 36069 ft 460 kts 191°
2026-04-22 06:51 32.56372 114.65278 36074 ft 462 kts 191°
2026-04-22 06:51 32.49986 114.64687 36065 ft 460 kts 191°
2026-04-22 06:52 32.43571 114.64102 36076 ft 463 kts 191°
2026-04-22 06:52 32.37191 114.63503 36066 ft 462 kts 192°
2026-04-22 06:53 32.30796 114.62854 36062 ft 462 kts 192°
2026-04-22 06:53 32.24399 114.62211 36065 ft 460 kts 192°
2026-04-22 06:54 32.18004 114.61586 36065 ft 461 kts 191°
2026-04-22 06:54 32.11638 114.60967 36058 ft 460 kts 191°
2026-04-22 06:55 32.05256 114.60354 36060 ft 460 kts 191°
2026-04-22 06:55 31.98854 114.59736 36063 ft 460 kts 191°
2026-04-22 06:56 31.92483 114.59125 36052 ft 460 kts 191°
2026-04-22 06:56 31.86099 114.58516 36053 ft 461 kts 192°
2026-04-22 06:57 31.79709 114.57908 36058 ft 460 kts 192°
2026-04-22 06:57 31.73327 114.57306 36061 ft 462 kts 191°
2026-04-22 06:58 31.66938 114.56706 36057 ft 460 kts 192°
2026-04-22 06:58 31.60547 114.56078 36052 ft 461 kts 192°
2026-04-22 06:59 31.54171 114.55454 36046 ft 461 kts 192°
2026-04-22 06:59 31.47761 114.54842 36047 ft 460 kts 192°
2026-04-22 07:00 31.41380 114.54242 36045 ft 461 kts 192°
2026-04-22 07:00 31.34956 114.53645 36047 ft 463 kts 192°
2026-04-22 07:01 31.28588 114.53013 36053 ft 460 kts 195°
2026-04-22 07:01 31.22431 114.51296 36052 ft 447 kts 207°
2026-04-22 07:02 31.16804 114.48392 36048 ft 442 kts 212°
2026-04-22 07:02 31.11255 114.45311 36057 ft 442 kts 212°
2026-04-22 07:03 31.05716 114.42241 36056 ft 443 kts 212°
2026-04-22 07:03 31.00143 114.39166 36053 ft 441 kts 212°
2026-04-22 07:04 30.94612 114.36114 36054 ft 442 kts 213°
2026-04-22 07:04 30.89021 114.33090 36058 ft 444 kts 211°
2026-04-22 07:05 30.83374 114.30153 36056 ft 444 kts 211°
2026-04-22 07:05 30.77762 114.27165 36057 ft 442 kts 212°
2026-04-22 07:06 30.72207 114.24125 36054 ft 442 kts 212°
2026-04-22 07:06 30.66648 114.21107 36055 ft 444 kts 212°
2026-04-22 07:07 30.61039 114.18072 36058 ft 443 kts 212°
2026-04-22 07:07 30.55493 114.15071 36054 ft 442 kts 212°
2026-04-22 07:08 30.49910 114.12035 36052 ft 443 kts 212°
2026-04-22 07:08 30.44329 114.09010 36051 ft 444 kts 212°
2026-04-22 07:09 30.38716 114.05987 36054 ft 444 kts 212°
2026-04-22 07:09 30.33089 114.02966 36049 ft 444 kts 212°
2026-04-22 07:10 30.27464 113.99953 36058 ft 444 kts 212°
2026-04-22 07:10 30.21887 113.96955 36054 ft 444 kts 213°
2026-04-22 07:11 30.16252 113.93920 36055 ft 446 kts 212°
2026-04-22 07:11 30.10634 113.90916 36055 ft 446 kts 213°
2026-04-22 07:12 30.05019 113.87929 36053 ft 446 kts 212°
2026-04-22 07:12 29.99373 113.84928 36057 ft 445 kts 213°
2026-04-22 07:13 29.93708 113.82062 36057 ft 449 kts 210°
2026-04-22 07:13 29.87722 113.79793 36062 ft 457 kts 204°
2026-04-22 07:14 29.81431 113.78252 36069 ft 464 kts 197°
2026-04-22 07:14 29.74962 113.77507 36069 ft 470 kts 192°
2026-04-22 07:15 29.68422 113.77064 36066 ft 469 kts 193°
2026-04-22 07:15 29.61924 113.76620 36067 ft 469 kts 192°
2026-04-22 07:16 29.55380 113.76169 36060 ft 469 kts 192°
2026-04-22 07:16 29.48896 113.75727 36056 ft 469 kts 193°
2026-04-22 07:17 29.42362 113.75277 36056 ft 469 kts 193°
2026-04-22 07:17 29.35856 113.74840 36054 ft 468 kts 193°
2026-04-22 07:18 29.29327 113.74401 36058 ft 470 kts 193°
2026-04-22 07:18 29.22764 113.74041 36060 ft 473 kts 190°
2026-04-22 07:19 29.16148 113.74168 36058 ft 477 kts 188°
2026-04-22 07:19 29.09519 113.74360 36058 ft 476 kts 188°
2026-04-22 07:20 29.02871 113.74558 36061 ft 478 kts 188°
2026-04-22 07:20 28.96225 113.74758 36050 ft 478 kts 188°
2026-04-22 07:21 28.89568 113.74963 36046 ft 477 kts 188°
2026-04-22 07:21 28.82907 113.75171 36043 ft 479 kts 188°
2026-04-22 07:22 28.76238 113.75372 36047 ft 479 kts 189°
2026-04-22 07:22 28.69640 113.75114 36047 ft 472 kts 194°
2026-04-22 07:23 28.63086 113.74621 36050 ft 471 kts 193°
2026-04-22 07:23 28.56523 113.74138 36048 ft 472 kts 193°
2026-04-22 07:24 28.49991 113.73666 36049 ft 473 kts 193°
2026-04-22 07:24 28.43376 113.73191 36044 ft 474 kts 193°
2026-04-22 07:25 28.36816 113.72729 36047 ft 474 kts 193°
2026-04-22 07:25 28.30233 113.72252 36051 ft 475 kts 193°
2026-04-22 07:26 28.23655 113.71777 36053 ft 473 kts 193°
2026-04-22 07:26 28.17060 113.71297 36054 ft 474 kts 194°
2026-04-22 07:27 28.10466 113.70795 36053 ft 473 kts 194°
2026-04-22 07:27 28.03890 113.70207 36051 ft 475 kts 194°
2026-04-22 07:28 27.94011 113.69286 36046 ft 474 kts 194°
2026-04-22 07:28 27.87439 113.68696 36046 ft 474 kts 194°
2026-04-22 07:29 27.80872 113.68114 36047 ft 476 kts 194°
2026-04-22 07:29 27.74276 113.67542 36046 ft 477 kts 194°
2026-04-22 07:30 27.67611 113.66961 36048 ft 478 kts 194°
2026-04-22 07:30 27.60945 113.66566 36052 ft 480 kts 191°
2026-04-22 07:31 27.54284 113.66400 36047 ft 482 kts 191°
2026-04-22 07:31 27.47552 113.66256 36049 ft 481 kts 190°
2026-04-22 07:32 27.40867 113.66116 36046 ft 482 kts 190°
2026-04-22 07:32 27.34158 113.65985 36048 ft 483 kts 190°
2026-04-22 07:33 27.27422 113.65846 36048 ft 482 kts 190°
2026-04-22 07:33 27.20673 113.65984 36042 ft 490 kts 185°
2026-04-22 07:34 27.13854 113.66941 36041 ft 497 kts 178°
2026-04-22 07:34 27.07108 113.68723 36035 ft 501 kts 173°
2026-04-22 07:35 27.00405 113.70744 36036 ft 500 kts 173°
2026-04-22 07:35 26.93690 113.72752 36034 ft 499 kts 173°
2026-04-22 07:36 26.86928 113.74757 36026 ft 500 kts 173°
2026-04-22 07:36 26.80231 113.76745 36029 ft 500 kts 173°
2026-04-22 07:37 26.73508 113.78730 36027 ft 500 kts 173°
2026-04-22 07:37 26.66802 113.80800 36028 ft 500 kts 172°
2026-04-22 07:38 26.60074 113.82926 36033 ft 500 kts 172°
2026-04-22 07:38 26.53389 113.85036 36032 ft 501 kts 172°
2026-04-22 07:39 26.46652 113.87093 36040 ft 500 kts 173°
2026-04-22 07:39 26.39935 113.88995 36044 ft 500 kts 173°
2026-04-22 07:40 26.33177 113.90926 36048 ft 500 kts 173°
2026-04-22 07:40 26.26429 113.92873 36062 ft 500 kts 173°
2026-04-22 07:41 26.19690 113.94823 36083 ft 500 kts 172°
2026-04-22 07:41 26.12977 113.96772 36080 ft 501 kts 172°
2026-04-22 07:42 26.06197 113.98742 36078 ft 500 kts 172°
2026-04-22 07:42 25.99458 114.00688 36073 ft 500 kts 172°
2026-04-22 07:43 25.92751 114.02647 36048 ft 501 kts 172°
2026-04-22 07:43 25.85966 114.04653 36030 ft 501 kts 171°
2026-04-22 07:44 25.79262 114.06643 36017 ft 501 kts 171°
2026-04-22 07:44 25.72493 114.08649 36003 ft 501 kts 171°
2026-04-22 07:45 25.65757 114.10647 36001 ft 501 kts 171°
2026-04-22 07:45 25.59047 114.12633 35994 ft 501 kts 171°
2026-04-22 07:46 25.52307 114.14628 35992 ft 501 kts 171°
2026-04-22 07:46 25.45547 114.16628 35989 ft 501 kts 171°
2026-04-22 07:47 25.38825 114.18615 35987 ft 501 kts 171°
2026-04-22 07:47 25.32122 114.20601 35978 ft 501 kts 171°
2026-04-22 07:48 25.25382 114.22601 35969 ft 501 kts 171°
2026-04-22 07:48 25.18607 114.24569 35963 ft 499 kts 173°
2026-04-22 07:49 25.11800 114.25729 35953 ft 495 kts 182°
2026-04-22 07:49 25.04931 114.25788 35943 ft 491 kts 190°
2026-04-22 07:50 24.98210 114.24781 35940 ft 484 kts 197°
2026-04-22 07:50 24.91629 114.23343 35942 ft 485 kts 197°
2026-04-22 07:51 24.84994 114.21888 35947 ft 485 kts 197°
2026-04-22 07:51 24.78367 114.20445 35952 ft 485 kts 197°
2026-04-22 07:52 24.71708 114.19001 35962 ft 486 kts 197°
2026-04-22 07:52 24.65106 114.17574 35964 ft 486 kts 197°
2026-04-22 07:53 24.58455 114.16142 35957 ft 485 kts 197°
2026-04-22 07:53 24.51845 114.14719 35951 ft 485 kts 197°
2026-04-22 07:54 24.45185 114.13296 35949 ft 486 kts 197°
2026-04-22 07:54 24.38525 114.11868 35955 ft 486 kts 197°
2026-04-22 07:55 24.31958 114.10162 35949 ft 482 kts 201°
2026-04-22 07:55 24.25530 114.08182 35933 ft 482 kts 201°
2026-04-22 07:56 24.19055 114.06200 35931 ft 483 kts 201°
2026-04-22 07:56 24.12566 114.04225 35946 ft 483 kts 201°
2026-04-22 07:57 24.06071 114.02252 35966 ft 483 kts 201°
2026-04-22 07:57 23.99582 114.00285 35994 ft 484 kts 201°
2026-04-22 07:58 23.93096 113.98322 35993 ft 484 kts 201°
2026-04-22 07:58 23.86544 113.96339 35972 ft 484 kts 201°
2026-04-22 07:59 23.80056 113.94380 35953 ft 485 kts 201°
2026-04-22 07:59 23.73546 113.92419 35931 ft 484 kts 201°
2026-04-22 08:00 23.67024 113.90458 35918 ft 485 kts 201°
2026-04-22 08:00 23.60538 113.88515 35906 ft 484 kts 201°
2026-04-22 08:01 23.54041 113.86571 35895 ft 484 kts 201°
2026-04-22 08:01 23.47536 113.84602 35884 ft 484 kts 201°
2026-04-22 08:02 23.41027 113.82611 35882 ft 485 kts 201°
2026-04-22 08:02 23.34506 113.80634 35881 ft 486 kts 201°
2026-04-22 08:03 23.27996 113.78673 35878 ft 486 kts 200°
2026-04-22 08:03 23.21453 113.76707 35874 ft 485 kts 200°
2026-04-22 08:04 23.14926 113.74749 35872 ft 487 kts 200°
2026-04-22 08:04 23.08425 113.72803 35872 ft 487 kts 200°
2026-04-22 08:05 23.01863 113.70845 35879 ft 487 kts 200°
2026-04-22 08:05 22.95328 113.68903 35884 ft 487 kts 200°
2026-04-22 08:06 22.88791 113.66952 35886 ft 486 kts 200°
2026-04-22 08:06 22.82303 113.64964 35889 ft 487 kts 201°
2026-04-22 08:07 22.75755 113.62962 35882 ft 487 kts 201°
2026-04-22 08:07 22.69243 113.60989 35880 ft 487 kts 200°
2026-04-22 08:08 22.62661 113.59154 35868 ft 493 kts 192°
2026-04-22 08:08 22.59217 113.59025 35872 ft 501 kts 179°
2026-04-22 08:08 22.55738 113.59710 35876 ft 505 kts 166°
2026-04-22 08:09 22.52516 113.61166 35879 ft 508 kts 153°
2026-04-22 08:09 22.49624 113.63349 35881 ft 512 kts 140°
2026-04-22 08:09 22.47196 113.66202 35886 ft 514 kts 126°
2026-04-22 08:09 22.45292 113.69432 35894 ft 515 kts 121°
2026-04-22 08:10 22.41713 113.76109 35891 ft 514 kts 123°
2026-04-22 08:10 22.39525 113.79154 35887 ft 512 kts 135°
2026-04-22 08:10 22.36845 113.81692 35894 ft 510 kts 147°
2026-04-22 08:11 22.30561 113.85019 35900 ft 502 kts 167°
2026-04-22 08:11 22.27144 113.85763 35898 ft 496 kts 178°
2026-04-22 08:11 22.23711 113.85879 35900 ft 493 kts 187°
2026-04-22 08:12 22.16817 113.85407 35904 ft 495 kts 188°
2026-04-22 08:12 22.09967 113.84911 35913 ft 496 kts 188°
2026-04-22 08:13 22.03054 113.84447 35912 ft 496 kts 188°
2026-04-22 08:13 21.96146 113.84002 35914 ft 496 kts 188°
2026-04-22 08:14 21.89243 113.83563 35913 ft 496 kts 187°
2026-04-22 08:14 21.82370 113.83128 35914 ft 496 kts 187°
2026-04-22 08:15 21.75469 113.82692 35914 ft 496 kts 187°
2026-04-22 08:15 21.68551 113.82256 35914 ft 496 kts 187°
2026-04-22 08:16 21.61653 113.81821 35915 ft 496 kts 187°
2026-04-22 08:16 21.54742 113.81387 35912 ft 496 kts 187°
2026-04-22 08:17 21.47866 113.80956 35915 ft 496 kts 187°
2026-04-22 08:17 21.40959 113.80525 35914 ft 496 kts 187°
2026-04-22 08:18 21.34032 113.80093 35914 ft 496 kts 187°
2026-04-22 08:18 21.27140 113.79667 35915 ft 496 kts 187°
2026-04-22 08:19 21.20256 113.79246 35912 ft 496 kts 187°
2026-04-22 08:19 21.13340 113.78827 35913 ft 496 kts 187°
2026-04-22 08:20 21.06447 113.78283 35911 ft 495 kts 190°
2026-04-22 08:20 20.99602 113.77485 35911 ft 496 kts 190°
2026-04-22 08:21 20.92725 113.76694 35913 ft 496 kts 189°
2026-04-22 08:21 20.85842 113.75916 35911 ft 496 kts 189°
2026-04-22 08:22 20.78983 113.75147 35912 ft 496 kts 189°
2026-04-22 08:22 20.72077 113.74375 35911 ft 496 kts 189°
2026-04-22 08:23 20.65245 113.73614 35912 ft 495 kts 189°
2026-04-22 08:23 20.58366 113.72847 35913 ft 496 kts 189°
2026-04-22 08:24 20.51477 113.72081 35911 ft 495 kts 189°
2026-04-22 08:24 20.44638 113.71319 35911 ft 495 kts 189°
2026-04-22 08:25 20.37763 113.70555 35910 ft 495 kts 189°
2026-04-22 08:25 20.30894 113.69792 35912 ft 495 kts 189°
2026-04-22 08:26 20.24023 113.69029 35918 ft 495 kts 189°
2026-04-22 08:26 20.17128 113.68263 36181 ft 501 kts 188°
2026-04-22 08:27 20.13686 113.67880 36548 ft 500 kts 188°
2026-04-22 08:27 20.10205 113.67495 36965 ft 498 kts 188°
2026-04-22 08:27 20.06785 113.67117 37345 ft 496 kts 188°
2026-04-22 08:27 20.03355 113.66739 37694 ft 494 kts 188°
2026-04-22 08:28 19.99900 113.66356 38011 ft 494 kts 188°
2026-04-22 08:28 19.96514 113.65983 38294 ft 493 kts 188°
2026-04-22 08:28 19.93077 113.65604 38563 ft 493 kts 188°
2026-04-22 08:28 19.89638 113.65224 38806 ft 493 kts 188°
2026-04-22 08:29 19.82833 113.64475 38821 ft 493 kts 188°
2026-04-22 08:29 19.75993 113.63721 38813 ft 494 kts 188°
2026-04-22 08:30 19.69141 113.62967 38807 ft 494 kts 188°
2026-04-22 08:30 19.62267 113.62211 38810 ft 495 kts 188°
2026-04-22 08:31 19.55386 113.61455 38814 ft 496 kts 188°
2026-04-22 08:32 19.45040 113.60319 38814 ft 499 kts 188°
2026-04-22 08:32 19.38135 113.59565 38815 ft 500 kts 188°
2026-04-22 08:33 19.31187 113.58807 38815 ft 501 kts 188°
2026-04-22 08:33 19.24252 113.58051 38814 ft 501 kts 188°
2026-04-22 08:34 19.17302 113.57296 38812 ft 502 kts 187°
2026-04-22 08:34 19.10325 113.56546 38815 ft 502 kts 187°
2026-04-22 08:35 19.03388 113.55804 38813 ft 502 kts 187°
2026-04-22 08:35 18.96403 113.54964 38814 ft 502 kts 189°
2026-04-22 08:36 18.89488 113.53931 38811 ft 502 kts 189°
2026-04-22 08:36 18.82580 113.52920 38811 ft 502 kts 189°
2026-04-22 08:37 18.75617 113.51934 38813 ft 502 kts 189°
2026-04-22 08:37 18.68721 113.50962 38812 ft 502 kts 189°
2026-04-22 08:38 18.61835 113.49661 38806 ft 501 kts 196°
2026-04-22 08:38 18.55240 113.47285 38808 ft 500 kts 205°
2026-04-22 08:39 18.49113 113.43879 38804 ft 498 kts 214°
2026-04-22 08:39 18.43479 113.39683 38802 ft 497 kts 218°
2026-04-22 08:40 18.37906 113.35358 38804 ft 497 kts 218°
2026-04-22 08:40 18.32341 113.31057 38806 ft 496 kts 218°
2026-04-22 08:41 18.26746 113.26749 38805 ft 496 kts 218°
2026-04-22 08:41 18.21189 113.22478 38814 ft 497 kts 218°
2026-04-22 08:42 18.15621 113.18203 38819 ft 497 kts 217°
2026-04-22 08:42 18.10037 113.13921 38821 ft 497 kts 217°
2026-04-22 08:43 18.04416 113.09615 38819 ft 497 kts 217°
2026-04-22 08:43 17.98837 113.05347 38816 ft 497 kts 217°
2026-04-22 08:44 17.93253 113.01087 38812 ft 497 kts 217°
2026-04-22 08:44 17.87655 112.96819 38811 ft 496 kts 217°
2026-04-22 08:45 17.82113 112.92507 38808 ft 495 kts 218°
2026-04-22 08:45 17.76618 112.88140 38805 ft 496 kts 218°
2026-04-22 08:46 17.71090 112.83775 38805 ft 496 kts 218°
2026-04-22 08:46 17.65594 112.79453 38803 ft 496 kts 218°
2026-04-22 08:47 17.60064 112.75114 38807 ft 496 kts 218°
2026-04-22 08:47 17.54558 112.70798 38810 ft 495 kts 218°
2026-04-22 08:48 17.49029 112.66467 38805 ft 495 kts 218°
2026-04-22 08:48 17.43499 112.62141 38808 ft 495 kts 218°
2026-04-22 08:49 17.37996 112.57837 38809 ft 495 kts 218°
2026-04-22 08:49 17.32451 112.53505 38804 ft 495 kts 218°
2026-04-22 08:50 17.26933 112.49198 38808 ft 496 kts 218°
2026-04-22 08:50 17.21422 112.44902 38806 ft 495 kts 218°
2026-04-22 08:51 17.15874 112.40583 38803 ft 495 kts 218°
2026-04-22 08:51 17.10357 112.36295 38801 ft 495 kts 218°
2026-04-22 08:52 17.04843 112.32018 38804 ft 495 kts 217°
2026-04-22 08:52 16.99276 112.27695 38800 ft 496 kts 217°
2026-04-22 08:53 16.93719 112.23433 38804 ft 495 kts 217°
2026-04-22 08:53 16.88147 112.19198 38796 ft 496 kts 217°
2026-04-22 08:54 16.82590 112.14984 38799 ft 495 kts 217°
2026-04-22 08:54 16.77018 112.10764 38794 ft 495 kts 217°
2026-04-22 08:55 16.71413 112.06524 38798 ft 495 kts 217°
2026-04-22 08:55 16.65859 112.02325 38794 ft 495 kts 217°
2026-04-22 08:56 16.60285 111.98113 38792 ft 494 kts 217°
2026-04-22 08:56 16.54741 111.93926 38792 ft 494 kts 217°
2026-04-22 08:57 16.49148 111.89707 38791 ft 494 kts 217°
2026-04-22 08:57 16.43594 111.85521 38793 ft 494 kts 217°
2026-04-22 08:58 16.38012 111.81316 38790 ft 494 kts 217°
2026-04-22 08:58 16.32427 111.77112 38804 ft 494 kts 217°
2026-04-22 08:59 16.26870 111.72931 38805 ft 493 kts 217°
2026-04-22 08:59 16.21330 111.68766 38807 ft 493 kts 216°
2026-04-22 09:00 16.15772 111.64591 38809 ft 492 kts 216°
2026-04-22 09:00 16.10225 111.60429 38807 ft 493 kts 216°
2026-04-22 09:01 16.04645 111.56243 38804 ft 493 kts 216°
2026-04-22 09:01 15.99054 111.52052 38806 ft 494 kts 216°
2026-04-22 09:02 15.93472 111.47872 38809 ft 494 kts 216°
2026-04-22 09:02 15.87901 111.43704 38802 ft 493 kts 216°
2026-04-22 09:03 15.82368 111.39566 38801 ft 492 kts 216°
2026-04-22 09:03 15.76801 111.35407 38801 ft 493 kts 216°
2026-04-22 09:04 15.71223 111.31242 38802 ft 493 kts 216°
2026-04-22 09:04 15.65653 111.27087 38800 ft 493 kts 216°
2026-04-22 09:05 15.60088 111.22938 38800 ft 493 kts 216°
2026-04-22 09:05 15.54487 111.18769 38797 ft 493 kts 216°
2026-04-22 09:06 15.48920 111.14631 38796 ft 493 kts 216°
2026-04-22 09:06 15.43328 111.10481 38794 ft 494 kts 216°
2026-04-22 09:07 15.37735 111.06335 38796 ft 494 kts 216°
2026-04-22 09:07 15.32175 111.02142 38794 ft 494 kts 217°
2026-04-22 09:08 15.26684 110.97927 38794 ft 494 kts 217°
2026-04-22 09:08 15.21112 110.93674 38791 ft 496 kts 217°
2026-04-22 09:09 15.15567 110.89458 38791 ft 496 kts 216°
2026-04-22 09:09 15.10001 110.85234 38788 ft 496 kts 216°
2026-04-22 09:10 15.04458 110.81032 38788 ft 495 kts 216°
2026-04-22 09:10 14.98903 110.76826 38787 ft 494 kts 216°
2026-04-22 09:11 14.93366 110.72634 38789 ft 494 kts 217°
2026-04-22 09:11 14.87771 110.68402 38785 ft 495 kts 217°
2026-04-22 09:12 14.82224 110.64208 38781 ft 495 kts 217°
2026-04-22 09:12 14.76636 110.59985 38778 ft 496 kts 216°
2026-04-22 09:13 14.71093 110.55801 38777 ft 496 kts 216°
2026-04-22 09:13 14.65528 110.51602 38781 ft 495 kts 216°
2026-04-22 09:14 14.59945 110.47394 38784 ft 494 kts 216°
2026-04-22 09:14 14.54393 110.43212 38784 ft 495 kts 217°
2026-04-22 09:15 14.48803 110.39002 38781 ft 495 kts 217°
2026-04-22 09:15 14.43255 110.34827 38780 ft 495 kts 216°
2026-04-22 09:16 14.37666 110.30624 38779 ft 495 kts 216°
2026-04-22 09:16 14.32099 110.26442 38779 ft 495 kts 216°
2026-04-22 09:17 14.26555 110.22282 38779 ft 495 kts 216°
2026-04-22 09:17 14.20980 110.18101 38778 ft 495 kts 216°
2026-04-22 09:18 14.15408 110.13926 38776 ft 495 kts 216°
2026-04-22 09:18 14.09824 110.09748 38776 ft 495 kts 216°
2026-04-22 09:19 14.04273 110.05605 38774 ft 496 kts 216°
2026-04-22 09:19 13.98666 110.01415 38774 ft 496 kts 216°
2026-04-22 09:20 13.92958 109.97489 38774 ft 496 kts 212°
2026-04-22 09:20 13.87071 109.93679 38773 ft 495 kts 212°
2026-04-22 09:21 13.81232 109.89921 38773 ft 495 kts 212°
2026-04-22 09:21 13.75383 109.86160 38775 ft 496 kts 212°
2026-04-22 09:22 13.69529 109.82400 38771 ft 496 kts 212°
2026-04-22 09:22 13.63674 109.78640 38774 ft 496 kts 212°
2026-04-22 09:23 13.57818 109.74882 38770 ft 497 kts 212°
2026-04-22 09:23 13.51953 109.71121 38775 ft 496 kts 212°
2026-04-22 09:24 13.46095 109.67366 38768 ft 496 kts 212°
2026-04-22 09:24 13.40229 109.63607 38769 ft 496 kts 212°
2026-04-22 09:25 13.34386 109.59867 38764 ft 497 kts 212°
2026-04-22 09:25 13.28520 109.56115 38757 ft 497 kts 212°
2026-04-22 09:26 13.22627 109.52347 38751 ft 497 kts 212°
2026-04-22 09:26 13.16761 109.48598 38749 ft 497 kts 212°
2026-04-22 09:27 13.10874 109.44839 38740 ft 497 kts 212°
2026-04-22 09:27 13.05022 109.41104 38734 ft 498 kts 212°
2026-04-22 09:28 12.99132 109.37349 38739 ft 498 kts 212°
2026-04-22 09:28 12.93250 109.33601 38748 ft 498 kts 211°
2026-04-22 09:29 12.87369 109.29857 38756 ft 497 kts 211°
2026-04-22 09:29 12.81475 109.26109 38773 ft 497 kts 211°
2026-04-22 09:30 12.75570 109.22360 38792 ft 497 kts 211°
2026-04-22 09:30 12.69699 109.18640 38806 ft 497 kts 211°
2026-04-22 09:31 12.63812 109.14899 38811 ft 497 kts 212°
2026-04-22 09:31 12.57954 109.11147 38807 ft 496 kts 212°
2026-04-22 09:32 12.52125 109.07430 38795 ft 496 kts 211°
2026-04-22 09:32 12.46223 109.03682 38772 ft 496 kts 211°
2026-04-22 09:33 12.40376 108.99975 38777 ft 496 kts 211°
2026-04-22 09:33 12.34494 108.96248 38794 ft 496 kts 211°
2026-04-22 09:34 12.28636 108.92540 38819 ft 496 kts 211°
2026-04-22 09:34 12.22735 108.88808 38849 ft 496 kts 211°
2026-04-22 09:35 12.13954 108.83258 38899 ft 496 kts 211°
2026-04-22 09:35 12.08051 108.79530 38925 ft 496 kts 211°
2026-04-22 09:36 12.02190 108.75831 38930 ft 496 kts 211°
2026-04-22 09:36 11.96278 108.72106 38928 ft 497 kts 211°
2026-04-22 09:37 11.90395 108.68411 38926 ft 496 kts 211°
2026-04-22 09:37 11.84546 108.64732 38919 ft 496 kts 211°
2026-04-22 09:38 11.78665 108.61002 38917 ft 496 kts 212°
2026-04-22 09:38 11.72780 108.57270 38918 ft 496 kts 212°
2026-04-22 09:39 11.66921 108.53570 38923 ft 496 kts 211°
2026-04-22 09:39 11.61053 108.49874 38923 ft 497 kts 211°
2026-04-22 09:40 11.55150 108.46163 38906 ft 496 kts 211°
2026-04-22 09:40 11.49287 108.42478 38888 ft 496 kts 211°
2026-04-22 09:41 11.43380 108.38766 38868 ft 496 kts 211°
2026-04-22 09:41 11.37504 108.35078 38845 ft 496 kts 211°
2026-04-22 09:42 11.31592 108.31368 38825 ft 496 kts 211°
2026-04-22 09:42 11.25720 108.27686 38810 ft 496 kts 211°
2026-04-22 09:43 11.19836 108.23999 38803 ft 496 kts 211°
2026-04-22 09:43 11.13946 108.20312 38809 ft 497 kts 211°
2026-04-22 09:44 11.08029 108.16611 38814 ft 498 kts 211°
2026-04-22 09:44 11.02143 108.12937 38813 ft 497 kts 211°
2026-04-22 09:45 10.96219 108.09244 38808 ft 497 kts 211°
2026-04-22 09:45 10.90338 108.05512 38804 ft 496 kts 213°
2026-04-22 09:46 10.84589 108.01648 38803 ft 497 kts 213°
2026-04-22 09:46 10.78790 107.97762 38804 ft 498 kts 213°
2026-04-22 09:47 10.72968 107.93888 38805 ft 498 kts 213°
2026-04-22 09:47 10.67184 107.90053 38800 ft 497 kts 213°
2026-04-22 09:48 10.61369 107.86204 38797 ft 497 kts 213°
2026-04-22 09:48 10.55601 107.82390 38794 ft 496 kts 213°
2026-04-22 09:49 10.49811 107.78571 38790 ft 497 kts 213°
2026-04-22 09:49 10.43982 107.74714 38789 ft 498 kts 213°
2026-04-22 09:50 10.38205 107.70880 38787 ft 497 kts 213°
2026-04-22 09:50 10.32377 107.67032 38787 ft 496 kts 213°
2026-04-22 09:51 10.26610 107.63240 38787 ft 496 kts 213°
2026-04-22 09:51 10.20792 107.59423 38783 ft 496 kts 213°
2026-04-22 09:52 10.14972 107.55608 38783 ft 496 kts 213°
2026-04-22 09:52 10.09217 107.51792 38784 ft 497 kts 213°
2026-04-22 09:53 10.03411 107.47932 38783 ft 497 kts 213°
2026-04-22 09:53 9.97638 107.44112 38781 ft 496 kts 213°
2026-04-22 09:54 9.91822 107.40276 38785 ft 496 kts 213°
2026-04-22 09:54 9.86020 107.36454 38792 ft 495 kts 213°
2026-04-22 09:55 9.80223 107.32637 38789 ft 496 kts 213°
2026-04-22 09:55 9.74427 107.28822 38793 ft 496 kts 213°
2026-04-22 09:56 9.68657 107.25026 38791 ft 496 kts 213°
2026-04-22 09:56 9.62857 107.21210 38792 ft 494 kts 213°
2026-04-22 09:57 9.57072 107.17408 38791 ft 495 kts 213°
2026-04-22 09:57 9.51276 107.13600 38791 ft 494 kts 213°
2026-04-22 09:58 9.45533 107.09830 38791 ft 493 kts 213°
2026-04-22 09:58 9.39764 107.06044 38789 ft 493 kts 213°
2026-04-22 09:59 9.34006 107.02264 38791 ft 493 kts 213°
2026-04-22 09:59 9.28239 106.98481 38791 ft 493 kts 213°
2026-04-22 10:00 9.22469 106.94699 38791 ft 492 kts 213°
2026-04-22 10:00 9.16706 106.90923 38792 ft 491 kts 213°
2026-04-22 10:01 9.10978 106.87173 38791 ft 491 kts 213°
2026-04-22 10:01 9.05220 106.83405 38790 ft 490 kts 213°
2026-04-22 10:02 8.99486 106.79652 38792 ft 491 kts 213°
2026-04-22 10:02 8.93750 106.75903 38796 ft 492 kts 213°
2026-04-22 10:03 8.87976 106.72133 38801 ft 491 kts 213°
2026-04-22 10:03 8.82221 106.68381 38811 ft 492 kts 213°
2026-04-22 10:04 8.76457 106.64629 38806 ft 490 kts 213°
2026-04-22 10:04 8.70722 106.60918 38800 ft 490 kts 212°
2026-04-22 10:05 8.64902 106.57278 38793 ft 490 kts 212°
2026-04-22 10:05 8.59089 106.53669 38796 ft 490 kts 211°
2026-04-22 10:06 8.53293 106.50074 38797 ft 491 kts 212°
2026-04-22 10:06 8.47462 106.46457 38794 ft 490 kts 212°
2026-04-22 10:07 8.41657 106.42854 38794 ft 490 kts 211°
2026-04-22 10:07 8.35834 106.39243 38795 ft 490 kts 211°
2026-04-22 10:08 8.30016 106.35637 38793 ft 489 kts 211°
2026-04-22 10:08 8.24207 106.32037 38792 ft 489 kts 211°
2026-04-22 10:09 8.18430 106.28459 38794 ft 489 kts 211°
2026-04-22 10:09 8.12614 106.24857 38794 ft 489 kts 211°
2026-04-22 10:10 8.06804 106.21259 38792 ft 489 kts 211°
2026-04-22 10:10 8.00986 106.17658 38794 ft 490 kts 211°
2026-04-22 10:11 7.95200 106.14082 38795 ft 489 kts 211°
2026-04-22 10:11 7.89366 106.10474 38794 ft 489 kts 211°
2026-04-22 10:12 7.83562 106.06885 38793 ft 488 kts 211°
2026-04-22 10:12 7.77794 106.03321 38794 ft 488 kts 211°
2026-04-22 10:13 7.71982 105.99730 38794 ft 488 kts 211°
2026-04-22 10:13 7.66197 105.96159 38795 ft 488 kts 211°
2026-04-22 10:14 7.60381 105.92569 38795 ft 488 kts 211°
2026-04-22 10:14 7.54573 105.88985 38794 ft 488 kts 211°
2026-04-22 10:15 7.48791 105.85419 38793 ft 489 kts 211°
2026-04-22 10:15 7.42996 105.81847 38794 ft 488 kts 211°
2026-04-22 10:16 7.37181 105.78262 38796 ft 488 kts 211°
2026-04-22 10:16 7.31391 105.74696 38793 ft 487 kts 211°
2026-04-22 10:17 7.25631 105.71150 38794 ft 487 kts 211°
2026-04-22 10:17 7.19828 105.67580 38789 ft 487 kts 211°
2026-04-22 10:18 7.14031 105.64018 38788 ft 487 kts 211°
2026-04-22 10:18 7.08234 105.60462 38787 ft 488 kts 211°
2026-04-22 10:19 7.02431 105.56904 38785 ft 487 kts 211°
2026-04-22 10:19 6.96650 105.53325 38781 ft 487 kts 212°
2026-04-22 10:20 6.90915 105.49743 38787 ft 487 kts 212°
2026-04-22 10:20 6.85118 105.46141 38793 ft 487 kts 212°
2026-04-22 10:21 6.79341 105.42563 38793 ft 488 kts 212°
2026-04-22 10:21 6.73573 105.38995 38793 ft 488 kts 212°
2026-04-22 10:22 6.67782 105.35416 38797 ft 487 kts 212°
2026-04-22 10:22 6.62007 105.31847 38795 ft 486 kts 212°
2026-04-22 10:23 6.56225 105.28275 38794 ft 485 kts 212°
2026-04-22 10:23 6.50481 105.24728 38794 ft 484 kts 212°
2026-04-22 10:24 6.44709 105.21165 38794 ft 485 kts 212°
2026-04-22 10:24 6.38972 105.17625 38796 ft 485 kts 212°
2026-04-22 10:25 6.33240 105.14087 38795 ft 485 kts 212°
2026-04-22 10:25 6.27469 105.10528 38795 ft 485 kts 212°
2026-04-22 10:26 6.21701 105.06970 38794 ft 485 kts 212°
2026-04-22 10:26 6.15970 105.03436 38794 ft 484 kts 212°
2026-04-22 10:27 6.10232 104.99899 38795 ft 484 kts 212°
2026-04-22 10:27 6.04489 104.96361 38795 ft 483 kts 212°
2026-04-22 10:28 5.98716 104.92804 38792 ft 484 kts 212°
2026-04-22 10:28 5.92983 104.89273 38794 ft 485 kts 212°
2026-04-22 10:29 5.87208 104.85716 38790 ft 485 kts 212°
2026-04-22 10:29 5.81438 104.82162 38792 ft 486 kts 212°
2026-04-22 10:30 5.75690 104.78627 38787 ft 485 kts 212°
2026-04-22 10:30 5.69903 104.75067 38787 ft 485 kts 212°
2026-04-22 10:31 5.64131 104.71516 38787 ft 485 kts 212°
2026-04-22 10:31 5.58395 104.67986 38787 ft 485 kts 211°
2026-04-22 10:32 5.52623 104.64440 38788 ft 485 kts 211°
2026-04-22 10:32 5.46860 104.60895 38780 ft 484 kts 211°
2026-04-22 10:33 5.41133 104.57377 38787 ft 482 kts 211°
2026-04-22 10:33 5.35398 104.53857 38788 ft 480 kts 211°
2026-04-22 10:34 5.29698 104.50359 38791 ft 479 kts 211°
2026-04-22 10:34 5.24026 104.46878 38791 ft 479 kts 211°
2026-04-22 10:35 5.18331 104.43383 38791 ft 478 kts 211°
2026-04-22 10:35 5.12665 104.39909 38790 ft 478 kts 211°
2026-04-22 10:36 5.06975 104.36422 38791 ft 477 kts 211°
2026-04-22 10:36 5.01303 104.32951 38790 ft 476 kts 211°
2026-04-22 10:37 4.92830 104.27773 38793 ft 476 kts 211°
2026-04-22 10:38 4.87161 104.24325 38793 ft 476 kts 209°
2026-04-22 10:38 4.81389 104.21079 38793 ft 476 kts 208°
2026-04-22 10:39 4.75575 104.17854 38793 ft 476 kts 208°
2026-04-22 10:39 4.69791 104.14656 38793 ft 476 kts 208°
2026-04-22 10:40 4.63984 104.11449 38794 ft 474 kts 208°
2026-04-22 10:40 4.58182 104.08247 38793 ft 475 kts 208°
2026-04-22 10:41 4.52416 104.05064 38793 ft 474 kts 208°
2026-04-22 10:41 4.46600 104.01855 38793 ft 475 kts 208°
2026-04-22 10:42 4.40804 103.98659 38793 ft 475 kts 208°
2026-04-22 10:42 4.35027 103.95472 38793 ft 474 kts 208°
2026-04-22 10:43 4.29220 103.92271 38788 ft 474 kts 208°
2026-04-22 10:43 4.23422 103.89078 38779 ft 474 kts 208°
2026-04-22 10:44 4.17660 103.85904 38777 ft 474 kts 208°
2026-04-22 10:44 4.11838 103.82700 38777 ft 475 kts 207°
2026-04-22 10:45 4.06057 103.79522 38776 ft 475 kts 207°
2026-04-22 10:45 4.00228 103.76327 38777 ft 476 kts 207°
2026-04-22 10:46 3.94398 103.73123 38144 ft 480 kts 207°
2026-04-22 10:46 3.91533 103.71455 37531 ft 480 kts 211°
2026-04-22 10:46 3.88747 103.69577 36882 ft 482 kts 214°
2026-04-22 10:46 3.86081 103.67521 36194 ft 482 kts 218°
2026-04-22 10:47 3.83577 103.65321 35471 ft 484 kts 223°
2026-04-22 10:47 3.81207 103.62951 34876 ft 482 kts 226°
2026-04-22 10:47 3.78988 103.60427 34344 ft 481 kts 230°
2026-04-22 10:47 3.76928 103.57806 33714 ft 485 kts 232°
2026-04-22 10:48 3.74870 103.55112 32925 ft 487 kts 233°
2026-04-22 10:48 3.72809 103.52402 32119 ft 490 kts 233°
2026-04-22 10:48 3.70758 103.49702 31280 ft 495 kts 233°
2026-04-22 10:48 3.68650 103.46928 30377 ft 499 kts 233°
2026-04-22 10:49 3.66554 103.44174 29473 ft 503 kts 233°
2026-04-22 10:49 3.64913 103.42021 28911 ft 502 kts 233°
2026-04-22 10:49 3.62799 103.39252 28461 ft 496 kts 233°
2026-04-22 10:49 3.60722 103.36530 27936 ft 492 kts 233°
2026-04-22 10:50 3.58636 103.33798 27447 ft 487 kts 232°
2026-04-22 10:50 3.56592 103.31123 26903 ft 484 kts 232°
2026-04-22 10:50 3.54561 103.28465 26370 ft 480 kts 232°
2026-04-22 10:50 3.52525 103.25803 25838 ft 477 kts 232°
2026-04-22 10:51 3.50525 103.23189 25309 ft 473 kts 232°
2026-04-22 10:51 3.48543 103.20597 24829 ft 469 kts 232°
2026-04-22 10:51 3.46552 103.17994 24355 ft 464 kts 232°
2026-04-22 10:51 3.44602 103.15447 23905 ft 460 kts 232°
2026-04-22 10:52 3.42674 103.12927 23464 ft 455 kts 232°
2026-04-22 10:52 3.40764 103.10429 23020 ft 451 kts 232°
2026-04-22 10:52 3.38852 103.07932 22584 ft 447 kts 232°
2026-04-22 10:52 3.36984 103.05492 22157 ft 443 kts 232°
2026-04-22 10:53 3.35130 103.03070 21728 ft 439 kts 232°
2026-04-22 10:53 3.33261 103.00630 21285 ft 436 kts 232°
2026-04-22 10:53 3.31435 102.98244 20850 ft 433 kts 232°
2026-04-22 10:53 3.29592 102.95838 20409 ft 430 kts 232°
2026-04-22 10:54 3.27788 102.93481 19961 ft 428 kts 232°
2026-04-22 10:54 3.25987 102.91129 19509 ft 425 kts 232°
2026-04-22 10:54 3.24183 102.88773 19071 ft 422 kts 232°
2026-04-22 10:54 3.22415 102.86463 18618 ft 420 kts 232°
2026-04-22 10:55 3.20634 102.84138 18186 ft 417 kts 233°
2026-04-22 10:55 3.18890 102.81862 17745 ft 414 kts 233°
2026-04-22 10:55 3.17131 102.79565 17309 ft 412 kts 233°
2026-04-22 10:55 3.15400 102.77303 16867 ft 409 kts 233°
2026-04-22 10:56 3.13675 102.75048 16431 ft 406 kts 233°
2026-04-22 10:56 3.11965 102.72817 15996 ft 403 kts 233°
2026-04-22 10:56 3.10262 102.70592 15553 ft 401 kts 233°
2026-04-22 10:56 3.08588 102.68405 15112 ft 398 kts 233°
2026-04-22 10:57 3.06895 102.66196 14666 ft 396 kts 233°
2026-04-22 10:57 3.05244 102.64039 14230 ft 393 kts 233°
2026-04-22 10:57 3.03582 102.61871 13797 ft 391 kts 233°
2026-04-22 10:57 3.01924 102.59706 13361 ft 388 kts 233°
2026-04-22 10:58 3.00294 102.57578 12934 ft 386 kts 233°
2026-04-22 10:58 2.98654 102.55437 12483 ft 384 kts 233°
2026-04-22 10:58 2.97043 102.53336 12025 ft 382 kts 233°
2026-04-22 10:58 2.95422 102.51220 11586 ft 380 kts 233°
2026-04-22 10:59 2.93829 102.49141 11160 ft 379 kts 233°
2026-04-22 10:59 2.92222 102.47043 10716 ft 377 kts 233°
2026-04-22 10:59 2.90637 102.44975 10292 ft 374 kts 233°
2026-04-22 10:59 2.89079 102.42946 10064 ft 364 kts 233°
2026-04-22 11:00 2.87552 102.40955 10007 ft 350 kts 233°
2026-04-22 11:00 2.86105 102.39069 10002 ft 336 kts 234°
2026-04-22 11:00 2.84695 102.37234 9999 ft 322 kts 234°
2026-04-22 11:00 2.83363 102.35500 9990 ft 309 kts 233°
2026-04-22 11:01 2.82086 102.33838 9992 ft 297 kts 233°
2026-04-22 11:01 2.80846 102.32224 9985 ft 286 kts 234°
2026-04-22 11:01 2.79641 102.30655 9738 ft 285 kts 233°
2026-04-22 11:01 2.78438 102.29088 9460 ft 284 kts 234°
2026-04-22 11:02 2.77232 102.27517 9175 ft 284 kts 234°
2026-04-22 11:02 2.76025 102.25942 8917 ft 283 kts 234°
2026-04-22 11:02 2.74835 102.24388 8649 ft 283 kts 234°
2026-04-22 11:02 2.73641 102.22832 8377 ft 282 kts 234°
2026-04-22 11:03 2.72449 102.21278 8103 ft 282 kts 233°
2026-04-22 11:03 2.71240 102.19701 7827 ft 282 kts 234°
2026-04-22 11:03 2.70047 102.18146 7557 ft 282 kts 233°
2026-04-22 11:03 2.68863 102.16600 7288 ft 281 kts 233°
2026-04-22 11:04 2.67672 102.15049 7018 ft 281 kts 233°
2026-04-22 11:04 2.66473 102.13484 6754 ft 281 kts 233°
2026-04-22 11:04 2.65299 102.11955 6448 ft 277 kts 233°
2026-04-22 11:04 2.64138 102.10443 6198 ft 265 kts 233°
2026-04-22 11:05 2.63030 102.09003 5966 ft 258 kts 233°
2026-04-22 11:05 2.61952 102.07598 5717 ft 251 kts 233°
2026-04-22 11:05 2.60901 102.06231 5499 ft 245 kts 233°
2026-04-22 11:05 2.59868 102.04886 5272 ft 242 kts 233°
2026-04-22 11:06 2.58846 102.03554 5048 ft 241 kts 233°
2026-04-22 11:06 2.57822 102.02221 4817 ft 243 kts 233°
2026-04-22 11:06 2.56792 102.00879 4585 ft 244 kts 233°
2026-04-22 11:06 2.55758 101.99534 4356 ft 245 kts 233°
2026-04-22 11:07 2.54717 101.98178 4121 ft 246 kts 233°
2026-04-22 11:07 2.53663 101.96806 3888 ft 247 kts 233°
2026-04-22 11:07 2.52613 101.95439 3654 ft 247 kts 233°
2026-04-22 11:07 2.51571 101.94082 3515 ft 241 kts 233°
2026-04-22 11:08 2.50581 101.92792 3489 ft 228 kts 233°
2026-04-22 11:08 2.49648 101.91579 3468 ft 211 kts 233°
2026-04-22 11:08 2.48779 101.90447 3495 ft 197 kts 233°
2026-04-22 11:08 2.48040 101.89326 3497 ft 191 kts 255°
2026-04-22 11:09 2.48049 101.88074 3500 ft 177 kts 296°
2026-04-22 11:09 2.48760 101.87089 3515 ft 175 kts 319°
2026-04-22 11:09 2.49718 101.86318 3512 ft 175 kts 327°
2026-04-22 11:09 2.50726 101.85640 3510 ft 175 kts 328°
2026-04-22 11:10 2.51753 101.84969 3507 ft 175 kts 328°
2026-04-22 11:10 2.52771 101.84297 3507 ft 175 kts 328°
2026-04-22 11:10 2.53795 101.83614 3506 ft 175 kts 328°
2026-04-22 11:10 2.54813 101.82928 3508 ft 176 kts 328°
2026-04-22 11:11 2.55819 101.82248 3487 ft 176 kts 327°
2026-04-22 11:11 2.56840 101.81556 3287 ft 177 kts 327°
2026-04-22 11:11 2.57869 101.80858 3062 ft 178 kts 328°
2026-04-22 11:11 2.58896 101.80163 2841 ft 178 kts 328°
2026-04-22 11:12 2.59925 101.79469 2618 ft 179 kts 327°
2026-04-22 11:12 2.60971 101.78763 2391 ft 180 kts 327°
2026-04-22 11:12 2.62005 101.78067 2161 ft 177 kts 327°
2026-04-22 11:12 2.63017 101.77387 1932 ft 172 kts 327°
2026-04-22 11:13 2.63994 101.76730 1721 ft 167 kts 326°
2026-04-22 11:13 2.64954 101.76086 1506 ft 161 kts 326°
2026-04-22 11:13 2.65860 101.75478 1308 ft 155 kts 326°
2026-04-22 11:13 2.66741 101.74887 1114 ft 149 kts 325°
2026-04-22 11:14 2.67585 101.74320 927 ft 143 kts 325°
2026-04-22 11:14 2.68415 101.73764 759 ft 144 kts 325°
2026-04-22 11:14 2.69250 101.73202 580 ft 145 kts 326°
2026-04-22 11:14 2.70094 101.72643 403 ft 144 kts 325°
2026-04-22 11:15 2.70935 101.72074 218 ft 143 kts 325°
2026-04-22 11:15 2.71743 101.71533 87 ft 135 kts 325°
2026-04-22 11:15 2.72409 101.71085 83 ft 89 kts 326°
2026-04-22 11:15 2.72831 101.70801 83 ft 62 kts 326°
2026-04-22 11:16 2.73148 101.70589 83 ft 42 kts 326°
2026-04-22 11:16 2.73323 101.70485 83 ft 25 kts 339°
2026-04-22 11:16 2.73493 101.70459 83 ft 24 kts 357°
2026-04-22 11:16 2.73651 101.70457 83 ft 20 kts 355°
2026-04-22 11:17 2.73774 101.70397 83 ft 19 kts 325°
2026-04-22 11:17 2.73888 101.70319 83 ft 19 kts 326°
2026-04-22 11:17 2.74001 101.70245 83 ft 19 kts 326°
2026-04-22 11:17 2.74114 101.70168 83 ft 19 kts 326°
2026-04-22 11:18 2.74228 101.70091 83 ft 19 kts 326°
2026-04-22 11:18 2.74327 101.70026 83 ft 13 kts 326°
2026-04-22 11:18 2.74405 101.70015 83 ft 12 kts 38°
2026-04-22 11:18 2.74461 101.70088 83 ft 13 kts 56°
2026-04-22 11:19 2.74518 101.70171 83 ft 14 kts 56°
2026-04-22 11:19 2.74577 101.70259 83 ft 15 kts 56°
2026-04-22 11:19 2.74639 101.70350 83 ft 16 kts 56°
2026-04-22 11:19 2.74703 101.70445 83 ft 16 kts 56°
2026-04-22 11:20 2.74769 101.70543 83 ft 17 kts 56°
2026-04-22 11:20 2.74837 101.70643 83 ft 17 kts 56°
2026-04-22 11:20 2.74907 101.70745 83 ft 17 kts 56°
2026-04-22 11:20 2.74978 101.70850 83 ft 18 kts 56°
2026-04-22 11:21 2.75050 101.70956 83 ft 18 kts 56°
2026-04-22 11:21 2.75110 101.71044 83 ft 9 kts 56°
2026-04-22 11:21 2.75127 101.71088 83 ft 5 kts 110°
2026-04-22 11:21 2.75089 101.71121 83 ft 8 kts 146°
2026-04-22 11:22 2.75059 101.71141 83 ft 2 kts 146°
2026-04-22 11:22 2.75056 101.71143 83 ft 0 kts 146°